Voltar ao catálogo

FENGYUN 1C DEB *

LostSSO
NORAD 47034·DEBRIS·🇨🇳 China

Lançado May 10, 1999 de Taiyuan Satellite Launch Center

Loading…

Próximas Passagens (próximas 24 horas)

TLE

ObsoletoSource: Space-Track

Época: Mar 5, 2023, 04:01 UTC

1 47034U 99025FBL 23064.16755001  .00038844  00000-0  90605-2 0  9992
2 47034  98.0339  39.2004 0207939  11.7015 348.8902 14.42192453570657

Acompanhe FENGYUN 1C DEB * em tempo real com AllMySat

Download on the App Store